User: anonymous   Login
Location: Unspecified
(0.0000°N, 0.0000°E)
Time: 19:31:03
(UTC+00:00)
Language:

GEOEYE 1 - Orbit

View from above orbital plane
View from above orbital plane
View from above satellite
View from above satellite

Ground track
Ground track

The orbit data is extracted from the following two-line orbital elements,

1 33331U 08042A   14331.50487152  .00000908  00000-0  18119-3 0  8417
2 33331 098.1280 044.3772 0008558 320.9461 039.1128 14.64296144332611
Epoch (UTC): 27 November 2014 12:07:00
Eccentricity: 0.0008558
inclination: 98.1280°
perigee height: 673 km
apogee height: 685 km
right ascension of ascending node: 44.3772°
argument of perigee: 320.9461°
revolutions per day: 14.64296144
mean anomaly at epoch: 39.1128°
orbit number at epoch: 33261

The dashed part of the orbit path shows where the satellite is in the earth's shadow,  

DLR